| time (UTC) | temp C | wind direction | speed KPH | gust KPH | rain 1hr cm | rain 24hr cm | rain mn cm | humidity % | barometer mb |
| 20260506015504 | 22 | 85 | 0.0 | 0.0 | 0.00 | 0.00 | 0.00 | 67 | 1017.2 |
| 20260506015010 | 22 | 85 | 0.0 | 1.6 | 0.00 | 0.00 | 0.00 | 67 | 1017.0 |
| 20260506014523 | 22 | 85 | 0.0 | 3.2 | 0.00 | 0.00 | 0.00 | 67 | 1017.0 |
| 20260506014005 | 22 | 85 | 0.0 | 4.8 | 0.00 | 0.00 | 0.00 | 66 | 1016.9 |
| 20260506013510 | 23 | 85 | 1.6 | 4.8 | 0.00 | 0.00 | 0.00 | 66 | 1016.8 |
| 20260506013023 | 23 | 98 | 0.0 | 6.4 | 0.00 | 0.00 | 0.00 | 66 | 1016.6 |
| 20260506012505 | 23 | 115 | 1.6 | 11.3 | 0.00 | 0.00 | 0.00 | 65 | 1016.5 |
| 20260506012010 | 23 | 75 | 3.2 | 11.3 | 0.00 | 0.00 | 0.00 | 65 | 1016.5 |
| 20260506011523 | 23 | 74 | 1.6 | 11.3 | 0.00 | 0.00 | 0.00 | 64 | 1016.4 |
| 20260506011011 | 23 | 109 | 3.2 | 11.3 | 0.00 | 0.00 | 0.00 | 64 | 1016.3 |
| 20260506010511 | 23 | 87 | 3.2 | 9.7 | 0.00 | 0.00 | 0.00 | 63 | 1016.3 |
| 20260506010045 | 23 | 81 | 1.6 | 11.3 | 0.00 | 0.00 | 0.00 | 63 | 1016.2 |
| 20260506005006 | 24 | 94 | 6.4 | 14.5 | 0.00 | 0.00 | 0.00 | 62 | 1016.0 |
| 20260506004515 | 24 | 63 | 4.8 | 14.5 | 0.00 | 0.00 | 0.00 | 61 | 1015.9 |
| 20260506004003 | 25 | 71 | 6.4 | 14.5 | 0.00 | 0.00 | 0.00 | 61 | 1016.0 |
| 20260506003502 | 25 | 121 | 4.8 | 19.3 | 0.00 | 0.00 | 0.00 | 61 | 1015.9 |
| 20260506003005 | 25 | 88 | 11.3 | 24.1 | 0.00 | 0.00 | 0.00 | 60 | 1015.8 |
| 20260506002504 | 25 | 39 | 11.3 | 24.1 | 0.00 | 0.00 | 0.00 | 61 | 1015.7 |
| 20260506001002 | 26 | 94 | 8.0 | 16.1 | 0.00 | 0.00 | 0.00 | 59 | 1015.5 |
| 20260506000505 | 26 | 73 | 8.0 | 22.5 | 0.00 | 0.00 | 0.00 | 58 | 1015.5 |
| 20260505235504 | 27 | 31 | 8.0 | 20.9 | 0.00 | 0.00 | 0.00 | 56 | 1015.3 |
| 20260505235003 | 27 | 90 | 9.7 | 19.3 | 0.00 | 0.00 | 0.00 | 55 | 1015.2 |
| 20260505234506 | 27 | 85 | 6.4 | 17.7 | 0.00 | 0.00 | 0.00 | 54 | 1015.1 |
| 20260505234004 | 27 | 75 | 3.2 | 12.9 | 0.00 | 0.00 | 0.00 | 54 | 1015.1 |
| 20260505233507 | 28 | 74 | 6.4 | 14.5 | 0.00 | 0.00 | 0.00 | 53 | 1015.0 |
| 20260505233008 | 28 | 90 | 6.4 | 14.5 | 0.00 | 0.00 | 0.00 | 52 | 1014.9 |
| 20260505232502 | 28 | 126 | 8.0 | 16.1 | 0.00 | 0.00 | 0.00 | 51 | 1015.0 |
| 20260505232005 | 28 | 148 | 6.4 | 17.7 | 0.00 | 0.00 | 0.00 | 50 | 1015.0 |
| 20260505231507 | 28 | 101 | 8.0 | 17.7 | 0.00 | 0.00 | 0.00 | 49 | 1015.0 |
| 20260505231004 | 29 | 75 | 4.8 | 11.3 | 0.00 | 0.00 | 0.00 | 49 | 1015.0 |
| 20260505230503 | 29 | 77 | 1.6 | 11.3 | 0.00 | 0.00 | 0.00 | 49 | 1015.0 |
| 20260505230024 | 29 | 102 | 3.2 | 12.9 | 0.00 | 0.00 | 0.00 | 47 | 1015.0 |
| 20260505225504 | 30 | 67 | 3.2 | 12.9 | 0.00 | 0.00 | 0.00 | 48 | 1015.1 |
| 20260505225003 | 30 | 77 | 6.4 | 11.3 | 0.00 | 0.00 | 0.00 | 47 | 1015.1 |
| 20260505224003 | 30 | 57 | 3.2 | 14.5 | 0.00 | 0.00 | 0.00 | 46 | 1015.3 |
| 20260505223503 | 30 | 85 | 6.4 | 14.5 | 0.00 | 0.00 | 0.00 | 45 | 1015.2 |
| 20260505223014 | 31 | 76 | 6.4 | 12.9 | 0.00 | 0.00 | 0.00 | 45 | 1015.2 |
| 20260505222508 | 31 | 53 | 4.8 | 16.1 | 0.00 | 0.00 | 0.00 | 45 | 1015.2 |
| 20260505222003 | 31 | 115 | 11.3 | 16.1 | 0.00 | 0.00 | 0.00 | 45 | 1015.1 |
| 20260505221507 | 31 | 53 | 4.8 | 12.9 | 0.00 | 0.00 | 0.00 | 43 | 1015.1 |
| 20260505221004 | 31 | 51 | 6.4 | 12.9 | 0.00 | 0.00 | 0.00 | 43 | 1015.1 |
| 20260505220504 | 31 | 104 | 3.2 | 12.9 | 0.00 | 0.00 | 0.00 | 45 | 1015.1 |
| 20260505220008 | 31 | 86 | 6.4 | 14.5 | 0.00 | 0.00 | 0.00 | 45 | 1015.1 |
| 20260505215504 | 31 | 107 | 4.8 | 16.1 | 0.00 | 0.00 | 0.00 | 45 | 1015.0 |
| 20260505214503 | 32 | 26 | 8.0 | 16.1 | 0.00 | 0.00 | 0.00 | 42 | 1015.1 |
| 20260505214003 | 32 | 113 | 6.4 | 16.1 | 0.00 | 0.00 | 0.00 | 43 | 1015.0 |
| 20260505213502 | 32 | 63 | 4.8 | 14.5 | 0.00 | 0.00 | 0.00 | 44 | 1015.0 |
| 20260505213021 | 31 | 71 | 4.8 | 14.5 | 0.00 | 0.00 | 0.00 | 44 | 1014.9 |
| 20260505212506 | 31 | 87 | 6.4 | 14.5 | 0.00 | 0.00 | 0.00 | 43 | 1014.9 |
| 20260505212008 | 31 | 360 | 6.4 | 14.5 | 0.00 | 0.00 | 0.00 | 41 | 1014.9 |
| 20260505211522 | 31 | 338 | 8.0 | 14.5 | 0.00 | 0.00 | 0.00 | 41 | 1014.9 |
| 20260505211003 | 31 | 18 | 3.2 | 14.5 | 0.00 | 0.00 | 0.00 | 41 | 1014.8 |
| 20260505210503 | 32 | 13 | 1.6 | 14.5 | 0.00 | 0.00 | 0.00 | 42 | 1014.9 |
| 20260505210006 | 32 | 49 | 4.8 | 16.1 | 0.00 | 0.00 | 0.00 | 41 | 1015.0 |
| 20260505205504 | 32 | 352 | 3.2 | 16.1 | 0.00 | 0.00 | 0.00 | 40 | 1014.9 |
| 20260505205007 | 32 | 86 | 4.8 | 16.1 | 0.00 | 0.00 | 0.00 | 41 | 1014.9 |
| 20260505204510 | 32 | 80 | 8.0 | 16.1 | 0.00 | 0.00 | 0.00 | 40 | 1015.0 |
| 20260505204005 | 32 | 93 | 3.2 | 17.7 | 0.00 | 0.00 | 0.00 | 40 | 1015.0 |
| 20260505203503 | 32 | 98 | 1.6 | 19.3 | 0.00 | 0.00 | 0.00 | 42 | 1015.1 |
| 20260505203023 | 32 | 45 | 3.2 | 19.3 | 0.00 | 0.00 | 0.00 | 42 | 1015.1 |
| 20260505202006 | 32 | 38 | 6.4 | 14.5 | 0.00 | 0.00 | 0.00 | 42 | 1015.1 |
| 20260505201510 | 32 | 5 | 1.6 | 14.5 | 0.00 | 0.00 | 0.00 | 44 | 1015.2 |
| 20260505201004 | 32 | 53 | 4.8 | 16.1 | 0.00 | 0.00 | 0.00 | 41 | 1015.2 |
| 20260505200508 | 33 | 39 | 6.4 | 16.1 | 0.00 | 0.00 | 0.00 | 39 | 1015.2 |
| 20260505200005 | 33 | 34 | 6.4 | 14.5 | 0.00 | 0.00 | 0.00 | 40 | 1015.2 |
| 20260505195505 | 33 | 42 | 6.4 | 19.3 | 0.00 | 0.00 | 0.00 | 40 | 1015.2 |
| 20260505195004 | 33 | 89 | 9.7 | 19.3 | 0.00 | 0.00 | 0.00 | 41 | 1015.2 |
| 20260505194508 | 33 | 36 | 8.0 | 19.3 | 0.00 | 0.00 | 0.00 | 39 | 1015.3 |
| 20260505194004 | 33 | 98 | 4.8 | 14.5 | 0.00 | 0.00 | 0.00 | 41 | 1015.3 |
| 20260505193505 | 33 | 57 | 1.6 | 16.1 | 0.00 | 0.00 | 0.00 | 39 | 1015.3 |
| 20260505193012 | 33 | 274 | 1.6 | 16.1 | 0.00 | 0.00 | 0.00 | 43 | 1015.5 |
| 20260505192509 | 33 | 52 | 6.4 | 16.1 | 0.00 | 0.00 | 0.00 | 41 | 1015.5 |
| 20260505192005 | 33 | 55 | 9.7 | 20.9 | 0.00 | 0.00 | 0.00 | 41 | 1015.7 |
| 20260505191516 | 33 | 350 | 6.4 | 20.9 | 0.00 | 0.00 | 0.00 | 41 | 1015.7 |
| 20260505191005 | 33 | 32 | 4.8 | 17.7 | 0.00 | 0.00 | 0.00 | 42 | 1015.8 |
| 20260505190507 | 32 | 335 | 6.4 | 16.1 | 0.00 | 0.00 | 0.00 | 43 | 1015.8 |
| 20260505190022 | 33 | 29 | 8.0 | 17.7 | 0.00 | 0.00 | 0.00 | 43 | 1015.9 |
| 20260505185510 | 33 | 44 | 9.7 | 17.7 | 0.00 | 0.00 | 0.00 | 47 | 1015.8 |
| 20260505185009 | 33 | 44 | 4.8 | 16.1 | 0.00 | 0.00 | 0.00 | 45 | 1015.9 |
| 20260505184510 | 32 | 28 | 6.4 | 17.7 | 0.00 | 0.00 | 0.00 | 43 | 1015.9 |
| 20260505184007 | 32 | 71 | 6.4 | 17.7 | 0.00 | 0.00 | 0.00 | 44 | 1016.0 |
| 20260505183502 | 32 | 59 | 4.8 | 14.5 | 0.00 | 0.00 | 0.00 | 43 | 1016.1 |
| 20260505182503 | 32 | 128 | 8.0 | 16.1 | 0.00 | 0.00 | 0.00 | 46 | 1016.2 |
| 20260505182004 | 31 | 78 | 6.4 | 16.1 | 0.00 | 0.00 | 0.00 | 51 | 1016.3 |
| 20260505181004 | 31 | 104 | 8.0 | 16.1 | 0.00 | 0.00 | 0.00 | 46 | 1016.6 |
| 20260505180508 | 31 | 34 | 4.8 | 19.3 | 0.00 | 0.00 | 0.00 | 49 | 1016.6 |
| 20260505180019 | 31 | 87 | 6.4 | 19.3 | 0.00 | 0.00 | 0.00 | 51 | 1016.6 |
| 20260505175504 | 30 | 136 | 9.7 | 22.5 | 0.00 | 0.00 | 0.00 | 49 | 1016.6 |
| 20260505175006 | 30 | 72 | 8.0 | 22.5 | 0.00 | 0.00 | 0.00 | 52 | 1016.7 |
| 20260505174521 | 30 | 67 | 8.0 | 19.3 | 0.00 | 0.00 | 0.00 | 51 | 1016.8 |
| 20260505174012 | 29 | 42 | 11.3 | 17.7 | 0.00 | 0.00 | 0.00 | 53 | 1016.9 |
| 20260505173503 | 28 | 99 | 4.8 | 17.7 | 0.00 | 0.00 | 0.00 | 55 | 1016.8 |
| 20260505173014 | 28 | 22 | 6.4 | 11.3 | 0.00 | 0.00 | 0.00 | 54 | 1017.0 |
| 20260505172504 | 28 | 343 | 3.2 | 16.1 | 0.00 | 0.00 | 0.00 | 54 | 1017.0 |
| 20260505172003 | 28 | 344 | 4.8 | 16.1 | 0.00 | 0.00 | 0.00 | 53 | 1017.0 |
| 20260505171511 | 28 | 85 | 9.7 | 16.1 | 0.00 | 0.00 | 0.00 | 53 | 1017.1 |
| 20260505171004 | 28 | 81 | 8.0 | 14.5 | 0.00 | 0.00 | 0.00 | 51 | 1017.2 |
| 20260505170509 | 28 | 16 | 4.8 | 19.3 | 0.00 | 0.00 | 0.00 | 50 | 1017.1 |
| 20260505170017 | 29 | 120 | 4.8 | 19.3 | 0.00 | 0.00 | 0.00 | 53 | 1017.1 |
| 20260505165509 | 29 | 26 | 9.7 | 19.3 | 0.00 | 0.00 | 0.00 | 52 | 1017.1 |
| 20260505165004 | 29 | 34 | 6.4 | 17.7 | 0.00 | 0.00 | 0.00 | 53 | 1017.2 |
| 20260505164519 | 28 | 54 | 9.7 | 20.9 | 0.00 | 0.00 | 0.00 | 54 | 1017.2 |
| 20260505164004 | 28 | 13 | 9.7 | 20.9 | 0.00 | 0.00 | 0.00 | 52 | 1017.2 |
| 20260505163508 | 28 | 49 | 8.0 | 20.9 | 0.00 | 0.00 | 0.00 | 52 | 1017.2 |
| 20260505163025 | 28 | 42 | 8.0 | 19.3 | 0.00 | 0.00 | 0.00 | 53 | 1017.2 |
| 20260505162505 | 28 | 82 | 8.0 | 16.1 | 0.00 | 0.00 | 0.00 | 54 | 1017.3 |
| 20260505162008 | 28 | 50 | 4.8 | 16.1 | 0.00 | 0.00 | 0.00 | 55 | 1017.3 |
| 20260505161522 | 27 | 74 | 3.2 | 20.9 | 0.00 | 0.00 | 0.00 | 54 | 1017.3 |
| 20260505161007 | 28 | 41 | 11.3 | 20.9 | 0.00 | 0.00 | 0.00 | 53 | 1017.3 |
| 20260505160510 | 28 | 103 | 9.7 | 19.3 | 0.00 | 0.00 | 0.00 | 53 | 1017.2 |
| 20260505153014 | 28 | 109 | 8.0 | 19.3 | 0.00 | 0.00 | 0.00 | 55 | 1017.3 |
| 20260505152004 | 28 | 100 | 9.7 | 19.3 | 0.00 | 0.00 | 0.00 | 56 | 1017.3 |
| 20260505151004 | 28 | 116 | 4.8 | 17.7 | 0.00 | 0.00 | 0.00 | 56 | 1017.4 |
| 20260505150507 | 28 | 63 | 9.7 | 19.3 | 0.00 | 0.00 | 0.00 | 56 | 1017.4 |
| 20260505140505 | 25 | 117 | 9.7 | 22.5 | 0.00 | 0.00 | 0.00 | 66 | 1016.8 |
| 20260505125004 | 21 | 74 | 8.0 | 16.1 | 0.00 | 0.00 | 0.00 | 80 | 1017.0 |
| 20260505124513 | 21 | 111 | 6.4 | 14.5 | 0.00 | 0.00 | 0.00 | 81 | 1017.0 |
| 20260505124003 | 21 | 100 | 4.8 | 14.5 | 0.00 | 0.00 | 0.00 | 82 | 1017.0 |
| 20260505123503 | 21 | 72 | 3.2 | 12.9 | 0.00 | 0.00 | 0.00 | 82 | 1017.0 |
| 20260505122507 | 21 | 76 | 4.8 | 12.9 | 0.00 | 0.00 | 0.00 | 85 | 1017.1 |
| 20260505122004 | 20 | 108 | 3.2 | 12.9 | 0.00 | 0.00 | 0.00 | 86 | 1017.1 |
| 20260505121518 | 20 | 78 | 1.6 | 6.4 | 0.00 | 0.00 | 0.00 | 87 | 1017.1 |
| 20260505121006 | 20 | 77 | 0.0 | 9.7 | 0.00 | 0.00 | 0.00 | 88 | 1017.1 |
| 20260505120504 | 20 | 36 | 3.2 | 9.7 | 0.00 | 0.00 | 0.00 | 89 | 1017.1 |
| 20260505120038 | 20 | 71 | 4.8 | 9.7 | 0.00 | 0.00 | 0.00 | 89 | 1016.9 |
| 20260505115508 | 19 | 61 | 3.2 | 9.7 | 0.00 | 0.00 | 0.00 | 90 | 1016.8 |
| 20260505115003 | 19 | 92 | 1.6 | 9.7 | 0.00 | 0.00 | 0.00 | 91 | 1016.7 |
| 20260505114002 | 18 | 63 | 0.0 | 4.8 | 0.00 | 0.00 | 0.00 | 91 | 1016.5 |
| 20260505113505 | 18 | 71 | 0.0 | 4.8 | 0.00 | 0.00 | 0.00 | 91 | 1016.4 |
| 20260505113007 | 18 | 68 | 1.6 | 6.4 | 0.00 | 0.00 | 0.00 | 92 | 1016.3 |
| 20260505112507 | 18 | 67 | 0.0 | 6.4 | 0.00 | 0.00 | 0.00 | 92 | 1016.2 |
| 20260505112009 | 18 | 66 | 1.6 | 6.4 | 0.00 | 0.00 | 0.00 | 92 | 1016.0 |
| 20260505111009 | 18 | 26 | 0.0 | 3.2 | 0.00 | 0.00 | 0.00 | 91 | 1016.1 |
| 20260505110508 | 18 | 26 | 0.0 | 3.2 | 0.00 | 0.00 | 0.00 | 91 | 1016.1 |
| 20260505102010 | 18 | 78 | 0.0 | 4.8 | 0.00 | 0.00 | 0.00 | 93 | 1015.7 |
| 20260505101522 | 17 | 40 | 0.0 | 6.4 | 0.00 | 0.00 | 0.00 | 93 | 1015.8 |
| 20260505101010 | 17 | 50 | 1.6 | 8.0 | 0.00 | 0.00 | 0.00 | 94 | 1015.7 |
| 20260505100508 | 17 | 55 | 0.0 | 8.0 | 0.00 | 0.00 | 0.00 | 94 | 1015.6 |
| 20260505100022 | 17 | 64 | 0.0 | 6.4 | 0.00 | 0.00 | 0.00 | 94 | 1015.6 |
| 20260505095508 | 17 | 51 | 1.6 | 4.8 | 0.00 | 0.00 | 0.00 | 95 | 1015.5 |
| 20260505095013 | 17 | 58 | 1.6 | 4.8 | 0.00 | 0.00 | 0.00 | 94 | 1015.4 |
| 20260505094528 | 16 | 42 | 0.0 | 4.8 | 0.00 | 0.00 | 0.00 | 93 | 1015.4 |
| 20260505094006 | 16 | 92 | 0.0 | 4.8 | 0.00 | 0.00 | 0.00 | 92 | 1015.4 |
| 20260505093510 | 16 | 92 | 0.0 | 1.6 | 0.00 | 0.00 | 0.00 | 91 | 1015.4 |
| 20260505093026 | 16 | 92 | 0.0 | 1.6 | 0.00 | 0.00 | 0.00 | 91 | 1015.3 |
| 20260505092504 | 16 | 92 | 0.0 | 0.0 | 0.00 | 0.00 | 0.00 | 91 | 1015.3 |
| 20260505092008 | 16 | 92 | 0.0 | 0.0 | 0.00 | 0.00 | 0.00 | 91 | 1015.4 |
| 20260505091525 | 16 | 92 | 0.0 | 0.0 | 0.00 | 0.00 | 0.00 | 91 | 1015.4 |
| 20260505091004 | 17 | 92 | 0.0 | 0.0 | 0.00 | 0.00 | 0.00 | 91 | 1015.4 |
| 20260505090503 | 17 | 92 | 0.0 | 0.0 | 0.00 | 0.00 | 0.00 | 91 | 1015.3 |
| 20260505090035 | 17 | 92 | 0.0 | 0.0 | 0.00 | 0.00 | 0.00 | 90 | 1015.3 |
| 20260505085510 | 17 | 92 | 0.0 | 0.0 | 0.00 | 0.00 | 0.00 | 90 | 1015.3 |
| 20260505085010 | 17 | 92 | 0.0 | 0.0 | 0.00 | 0.00 | 0.00 | 90 | 1015.3 |
| 20260505084520 | 17 | 92 | 0.0 | 0.0 | 0.00 | 0.00 | 0.00 | 90 | 1015.2 |
| 20260505084007 | 17 | 92 | 0.0 | 0.0 | 0.00 | 0.00 | 0.00 | 89 | 1015.4 |
| 20260505083512 | 17 | 92 | 0.0 | 0.0 | 0.00 | 0.00 | 0.00 | 89 | 1015.4 |
| 20260505083017 | 17 | 92 | 0.0 | 0.0 | 0.00 | 0.00 | 0.00 | 89 | 1015.3 |
| 20260505082508 | 17 | 92 | 0.0 | 0.0 | 0.00 | 0.00 | 0.00 | 89 | 1015.2 |
| 20260505082010 | 17 | 92 | 0.0 | 0.0 | 0.00 | 0.00 | 0.00 | 89 | 1015.1 |
| 20260505081533 | 17 | 92 | 0.0 | 3.2 | 0.00 | 0.00 | 0.00 | 89 | 1015.1 |
| 20260505081005 | 17 | 92 | 0.0 | 3.2 | 0.00 | 0.00 | 0.00 | 89 | 1015.2 |
| 20260505080506 | 17 | 92 | 0.0 | 1.6 | 0.00 | 0.00 | 0.00 | 89 | 1015.2 |
| 20260505080017 | 17 | 91 | 0.0 | 4.8 | 0.00 | 0.00 | 0.00 | 89 | 1015.2 |
| 20260505075503 | 17 | 89 | 0.0 | 4.8 | 0.00 | 0.00 | 0.00 | 89 | 1015.2 |
| 20260505075007 | 17 | 72 | 1.6 | 4.8 | 0.00 | 0.00 | 0.00 | 89 | 1015.4 |
| 20260505074524 | 17 | 73 | 0.0 | 6.4 | 0.00 | 0.00 | 0.00 | 89 | 1015.4 |
| 20260505074007 | 17 | 75 | 1.6 | 6.4 | 0.00 | 0.00 | 0.00 | 89 | 1015.4 |
| 20260505073040 | 17 | 82 | 0.0 | 3.2 | 0.00 | 0.00 | 0.00 | 88 | 1015.5 |
| 20260505072513 | 17 | 109 | 0.0 | 1.6 | 0.00 | 0.00 | 0.00 | 88 | 1015.5 |
| 20260505072007 | 18 | 111 | 0.0 | 1.6 | 0.00 | 0.00 | 0.00 | 87 | 1015.5 |
| 20260505071521 | 18 | 114 | 0.0 | 0.0 | 0.00 | 0.00 | 0.00 | 86 | 1015.4 |
| 20260505071007 | 18 | 114 | 0.0 | 0.0 | 0.00 | 0.00 | 0.00 | 86 | 1015.4 |
| 20260505070512 | 18 | 114 | 0.0 | 0.0 | 0.00 | 0.00 | 0.00 | 86 | 1015.4 |
| 20260505070022 | 18 | 114 | 0.0 | 1.6 | 0.00 | 0.00 | 0.00 | 85 | 1015.5 |
| 20260505065505 | 18 | 114 | 0.0 | 1.6 | 0.00 | 0.00 | 0.00 | 85 | 1015.5 |
| 20260505065006 | 18 | 114 | 0.0 | 3.2 | 0.00 | 0.00 | 0.00 | 85 | 1015.5 |
| 20260505064535 | 18 | 114 | 0.0 | 3.2 | 0.00 | 0.00 | 0.00 | 85 | 1015.7 |
| 20260505064007 | 19 | 106 | 0.0 | 3.2 | 0.00 | 0.00 | 0.00 | 84 | 1015.9 |
| 20260505063509 | 19 | 109 | 0.0 | 4.8 | 0.00 | 0.00 | 0.00 | 84 | 1016.0 |
| 20260505063022 | 19 | 101 | 1.6 | 11.3 | 0.00 | 0.00 | 0.00 | 84 | 1015.9 |
| 20260505062011 | 19 | 72 | 1.6 | 6.4 | 0.00 | 0.00 | 0.00 | 84 | 1016.0 |
| 20260505061539 | 19 | 87 | 1.6 | 9.7 | 0.00 | 0.00 | 0.00 | 84 | 1015.9 |
| 20260505061003 | 19 | 73 | 1.6 | 8.0 | 0.00 | 0.00 | 0.00 | 84 | 1016.1 |
| 20260505060505 | 19 | 97 | 3.2 | 9.7 | 0.00 | 0.00 | 0.00 | 84 | 1016.0 |
| 20260505055506 | 20 | 79 | 1.6 | 8.0 | 0.00 | 0.00 | 0.00 | 83 | 1016.1 |
| 20260505055007 | 20 | 69 | 1.6 | 8.0 | 0.00 | 0.00 | 0.00 | 83 | 1016.3 |
| 20260505054007 | 20 | 64 | 1.6 | 12.9 | 0.00 | 0.00 | 0.00 | 83 | 1016.3 |
| 20260505053508 | 20 | 65 | 3.2 | 12.9 | 0.00 | 0.00 | 0.00 | 83 | 1016.4 |
| 20260505053005 | 20 | 82 | 1.6 | 11.3 | 0.00 | 0.00 | 0.00 | 83 | 1016.4 |
| 20260505052504 | 20 | 59 | 4.8 | 11.3 | 0.00 | 0.00 | 0.00 | 83 | 1016.5 |
| 20260505052004 | 20 | 81 | 3.2 | 8.0 | 0.00 | 0.00 | 0.00 | 83 | 1016.5 |
| 20260505051507 | 20 | 71 | 1.6 | 6.4 | 0.00 | 0.00 | 0.00 | 83 | 1016.7 |
| 20260505051006 | 20 | 70 | 1.6 | 6.4 | 0.00 | 0.00 | 0.00 | 83 | 1016.5 |
| 20260505050506 | 20 | 81 | 3.2 | 6.4 | 0.00 | 0.00 | 0.00 | 83 | 1016.6 |
| 20260505041511 | 20 | 71 | 1.6 | 6.4 | 0.00 | 0.00 | 0.00 | 82 | 1017.2 |
| 20260505041004 | 20 | 60 | 1.6 | 4.8 | 0.00 | 0.00 | 0.00 | 82 | 1017.1 |
| 20260505040503 | 20 | 69 | 1.6 | 6.4 | 0.00 | 0.00 | 0.00 | 81 | 1017.2 |
| 20260505040011 | 20 | 68 | 3.2 | 9.7 | 0.00 | 0.00 | 0.00 | 81 | 1017.0 |
| 20260505035502 | 20 | 71 | 1.6 | 11.3 | 0.00 | 0.00 | 0.00 | 81 | 1017.0 |
| 20260505035003 | 20 | 92 | 3.2 | 11.3 | 0.00 | 0.00 | 0.00 | 80 | 1017.0 |
| 20260505034513 | 20 | 93 | 3.2 | 11.3 | 0.00 | 0.00 | 0.00 | 80 | 1017.0 |
| 20260505034006 | 20 | 107 | 1.6 | 6.4 | 0.00 | 0.00 | 0.00 | 79 | 1017.1 |
| 20260505033503 | 20 | 71 | 1.6 | 6.4 | 0.00 | 0.00 | 0.00 | 79 | 1017.0 |
| 20260505033020 | 20 | 90 | 1.6 | 6.4 | 0.00 | 0.00 | 0.00 | 79 | 1017.1 |
| 20260505032506 | 20 | 74 | 0.0 | 8.0 | 0.00 | 0.00 | 0.00 | 78 | 1017.2 |
| 20260505032003 | 20 | 80 | 1.6 | 8.0 | 0.00 | 0.00 | 0.00 | 78 | 1017.3 |
| 20260505031535 | 20 | 86 | 3.2 | 9.7 | 0.00 | 0.00 | 0.00 | 78 | 1017.2 |
| 20260505031009 | 20 | 70 | 1.6 | 9.7 | 0.00 | 0.00 | 0.00 | 78 | 1017.1 |
| 20260505030503 | 20 | 66 | 1.6 | 9.7 | 0.00 | 0.00 | 0.00 | 77 | 1017.2 |
| 20260505030009 | 20 | 96 | 4.8 | 11.3 | 0.00 | 0.00 | 0.00 | 77 | 1017.0 |
| 20260505025504 | 20 | 71 | 3.2 | 11.3 | 0.00 | 0.00 | 0.00 | 76 | 1016.9 |
| 20260505025004 | 20 | 89 | 4.8 | 9.7 | 0.00 | 0.00 | 0.00 | 76 | 1016.9 |
| 20260505024519 | 20 | 34 | 3.2 | 12.9 | 0.00 | 0.00 | 0.00 | 76 | 1017.0 |
| 20260505024003 | 20 | 62 | 4.8 | 12.9 | 0.00 | 0.00 | 0.00 | 76 | 1017.1 |
| 20260505023503 | 21 | 86 | 4.8 | 11.3 | 0.00 | 0.00 | 0.00 | 75 | 1017.1 |
| 20260505023010 | 21 | 76 | 4.8 | 14.5 | 0.00 | 0.00 | 0.00 | 75 | 1017.1 |
| 20260505022503 | 21 | 106 | 4.8 | 14.5 | 0.00 | 0.00 | 0.00 | 75 | 1017.0 |
| 20260505022007 | 21 | 76 | 4.8 | 14.5 | 0.00 | 0.00 | 0.00 | 74 | 1016.9 |
| 20260505021526 | 21 | 74 | 3.2 | 9.7 | 0.00 | 0.00 | 0.00 | 74 | 1016.9 |
| 20260505021006 | 21 | 111 | 3.2 | 9.7 | 0.00 | 0.00 | 0.00 | 73 | 1016.8 |
| 20260505020028 | 21 | 81 | 3.2 | 11.3 | 0.00 | 0.00 | 0.00 | 72 | 1016.7 |